SCP
0 0 0 0 1 1 2 1 2 2 2 2 2 1 1 1 1 1 1 1 1 0 0 0 0 0 0 0 0 0 0 0
-0 1 1 1 -0 1 1 2 2 1 1 1 1 1 1 1 0 0 1 0 0 0 0 0 0 0 0 0 0 0 0 0
-0 0 2 3 3 3 2 2 1 1 0 0 1 0 1 0 0 0 0 0 0 0 0 0 0 0 0 0 0 0 0 0
-0 1 1 2 2 1 1 1 0 0 0 0 0 0 0 0 0 0 0 0 0 0 0 0 0 0 0 0 0 0 0 0
0 0 0 2 1 0 0 1 0 0 0 0 0 0 0 0 0 0 0 0 0 0 0 0 0 0 0 0 0 0 0 0
0 0 0 1 1 1 1 0 0 0 0 0 0 0 0 0 0 0 0 0 0 0 0 -0 0 0 0 0 0 0 0 0
-0 0 0 1 2 1 0 0 0 0 0 -0 -0 -0 0 0 0 0 0 0 0 0 0 -0 -0 0 0 0 0 0 0 0
-0 0 0 1 2 0 0 0 0 0 -0 -0 -0 -0 -0 0 -0 0 0 0 0 0 -0 0 -0 -0 0 0 0 0 0 0
-0 0 0 1 1 0 0 0 -0 -0 -0 -0 -0 -0 -0 -0 0 0 0 -0 0 0 -0 0 -0 -0 0 -0 0 0 0 -0
0 0 0 0 0 0 0 -0 -0 -0 -0 -0 -0 -0 -0 -0 -0 0 0 0 -0 0 0 0 0 -0 -0 -0 -0 0 -0 -0
0 0 0 0 0 0 0 -0 -0 0 -0 -0 -0 -0 -0 -0 -0 0 0 0 0 0 0 0 0 -0 -0 -0 -0 -0 -0 -0
0 -0 0 0 0 0 -0 -0 0 0 -0 -0 -0 -0 -0 -0 -0 0 0 0 0 0 0 0 -0 -0 -0 -0 -0 0 -0 -0
0 0 0 0 0 0 -0 -0 0 -0 -0 -0 -0 -0 -0 -0 -0 0 0 0 0 0 0 0 -0 -0 -0 0 0 0 0 0
0 0 0 0 0 0 -0 -0 -0 -0 -0 -0 0 -0 -0 -0 -0 0 -0 0 -0 0 0 0 0 -0 -0 -0 -0 -0 -0 -0
0 0 0 0 -0 0 0 -0 -0 -0 -0 0 0 -0 -0 -0 -0 -0 0 0 -0 -0 0 -0 -0 -0 -0 -0 -0 -0 -0 0
0 0 0 -0 -0 -0 -0 -0 -0 -0 -0 0 -0 0 -0 -0 -0 -0 -0 0 0 0 0 0 -0 -0 -0 -0 -0 -0 -0 0
0 0 0 -0 -0 -0 -0 -0 -0 0 -0 -0 0 0 -0 -0 -0 -0 0 0 0 0 0 0 0 -0 0 -0 -0 -0 -0 -0
0 0 0 0 0 0 0 -0 -0 -0 -0 -0 -0 -0 -0 -0 0 -0 -0 0 0 0 0 0 0 0 0 -0 -0 0 0 -0
0 0 0 0 0 0 -0 -0 0 0 -0 0 -0 -0 -0 -0 0 -0 -0 -0 0 0 0 0 -0 0 -0 -0 0 0 -0 -0
0 0 0 0 0 0 0 0 0 0 0 0 0 -0 -0 -0 -0 -0 -0 -0 -0 -0 -0 -0 0 -0 -0 -0 0 0 0 0
Wind_Speed_500mb
13 22 33 38 43 43 49 50 48 51 53 57 55 52 52 54 50 44 40 37 35 31 27 22 18 22 22 19 21 20 28 30
5 17 24 33 56 54 54 54 54 53 50 50 54 52 53 51 44 41 39 36 33 28 25 24 18 15 17 17 23 26 26 26
12 19 16 28 58 60 54 59 49 55 57 56 53 50 48 45 42 38 35 32 33 30 25 18 21 21 25 20 14 12 18 25
14 7 19 31 53 56 59 61 59 59 55 50 48 45 41 40 39 38 37 35 29 27 25 19 24 18 14 11 10 8 9 19
19 4 29 38 59 59 59 61 57 55 51 46 44 41 39 37 40 37 35 30 31 28 22 19 17 14 8 9 11 6 1 5
31 6 37 52 44 59 60 57 51 47 45 44 42 43 36 36 42 34 30 34 32 28 22 14 12 13 11 13 12 10 7 10
15 16 34 41 53 56 55 51 48 45 45 42 41 33 34 40 40 39 34 31 28 29 17 14 14 14 14 14 8 7 10 13
29 22 43 52 51 55 54 49 47 45 42 41 32 44 43 35 36 35 30 26 27 28 21 15 12 13 12 14 12 7 6 14
38 27 57 65 54 56 51 48 45 47 43 35 33 38 35 34 36 34 25 24 28 27 19 19 13 14 13 18 17 10 8 8
30 22 75 75 55 58 49 46 52 46 31 36 38 29 33 36 33 29 29 29 35 27 18 23 10 14 13 19 18 13 6 6
27 39 73 69 60 54 51 55 48 39 39 43 35 32 34 32 26 31 31 30 29 23 21 21 12 15 13 18 16 16 12 20
17 61 70 59 60 51 50 50 43 40 45 40 36 31 39 24 26 27 25 27 30 31 28 24 16 19 15 21 15 13 16 29
29 56 64 63 55 52 57 48 51 41 36 31 36 31 31 26 21 24 24 25 24 27 27 22 16 25 19 23 15 13 20 28
44 57 58 62 56 54 57 51 48 44 37 37 38 35 25 20 19 18 17 19 22 24 23 18 9 19 22 30 25 12 21 28
55 53 62 58 59 59 60 60 53 41 42 39 42 39 36 32 23 20 22 26 22 24 23 18 13 19 22 26 29 31 33 26
45 45 56 57 58 56 58 65 51 37 35 40 43 30 45 35 25 20 18 23 27 26 24 19 20 28 27 29 37 33 28 28
41 62 58 55 56 52 58 52 42 38 30 31 26 33 30 33 31 32 24 26 27 28 28 28 36 33 29 28 38 32 26 22
63 56 46 50 58 41 44 51 47 38 23 28 30 37 38 35 25 30 28 32 21 28 32 36 40 34 34 34 33 29 23 18
55 56 61 66 52 40 48 52 43 38 27 26 22 39 43 35 33 34 32 37 30 29 18 26 28 34 37 34 29 26 20 18
30 51 58 55 45 38 44 45 34 19 37 27 26 28 42 42 38 36 38 44 39 33 20 33 28 20 29 33 24 22 22 19
Wind_Direction_500mb
195 230 229 217 202 184 168 166 168 172 170 169 166 164 165 166 171 176 172 164 161 172 177 182 188 194 217 242 244 239 237 242
67 201 209 207 183 167 165 163 169 165 167 161 155 155 160 159 161 156 163 161 163 165 165 175 196 209 200 214 239 249 250 238
68 206 189 143 147 148 156 149 150 148 148 153 155 156 156 159 160 158 153 155 166 168 169 171 169 198 228 250 249 243 230 239
356 215 187 142 146 154 155 146 149 148 147 152 154 155 158 158 155 154 157 167 165 169 162 179 205 231 239 237 210 239 264 233
325 292 205 153 148 151 152 146 143 145 148 152 156 155 154 160 162 161 170 169 169 155 172 188 232 206 177 177 163 191 131 139
334 293 219 155 152 154 142 140 144 149 153 155 155 161 161 165 158 169 168 171 171 160 176 215 170 147 146 155 143 180 215 159
332 308 216 155 153 147 143 146 153 154 156 158 162 167 160 159 170 171 171 184 178 164 169 164 135 135 136 161 161 204 177 168
295 287 203 171 154 155 148 156 157 160 159 159 160 150 154 169 175 175 183 177 160 152 157 155 129 126 123 131 124 100 176 179
306 279 189 171 159 154 155 161 164 147 137 147 167 175 161 174 176 170 182 162 156 153 167 140 121 118 124 144 139 119 109 163
277 238 181 166 158 157 161 164 143 138 139 156 159 152 157 166 174 177 175 170 163 162 160 135 147 133 133 151 147 139 173 172
281 202 176 163 156 158 160 145 142 140 146 153 141 142 159 156 176 173 184 180 172 166 142 157 165 153 141 150 148 133 136 143
255 167 167 158 148 158 149 138 141 142 152 140 143 146 159 166 176 185 180 179 182 174 163 169 186 165 152 155 141 124 119 142
208 176 153 142 154 155 150 147 144 146 157 148 153 160 166 175 182 180 190 191 186 179 177 186 189 169 155 147 130 110 144 147
182 166 154 148 157 154 150 150 147 160 150 150 154 164 156 149 153 150 146 168 169 166 161 171 144 171 151 153 147 125 131 138
184 170 151 156 158 157 154 155 154 156 155 162 167 176 165 144 131 136 142 141 148 152 154 170 184 158 155 154 136 125 106 100
182 166 153 163 161 153 153 149 149 153 159 173 178 173 164 148 149 136 135 145 156 160 165 172 165 159 156 148 146 142 126 130
174 151 159 162 155 149 149 147 148 155 159 174 164 155 154 153 154 148 138 146 152 162 165 158 152 150 153 153 161 150 138 144
117 130 145 149 136 145 156 147 154 158 169 143 175 165 153 163 150 143 140 149 154 149 159 159 156 162 164 159 157 155 164 167
109 121 118 124 126 121 127 147 158 164 173 141 163 172 158 160 142 151 153 151 149 154 149 163 161 163 164 165 157 167 182 162
111 122 129 132 130 127 133 151 166 156 167 169 165 181 161 164 150 149 152 149 149 157 146 144 136 133 160 163 162 180 182 157
Wind_Speed_850mb
13 22 33 38 43 43 49 50 48 51 53 57 55 52 52 54 50 44 40 37 35 31 27 22 18 22 22 19 21 20 28 30
5 17 24 33 56 54 54 54 54 53 50 50 54 52 53 51 44 41 39 36 33 28 25 24 18 15 17 17 23 26 26 26
12 19 16 28 58 60 54 59 49 55 57 56 53 50 48 45 42 38 35 32 33 30 25 18 21 21 25 20 14 12 18 25
14 7 19 31 53 56 59 61 59 59 55 50 48 45 41 40 39 38 37 35 29 27 25 19 24 18 14 11 10 8 9 19
19 4 29 38 59 59 59 61 57 55 51 46 44 41 39 37 40 37 35 30 31 28 22 19 17 14 8 9 11 6 1 5
31 6 37 52 44 59 60 57 51 47 45 44 42 43 36 36 42 34 30 34 32 28 22 14 12 13 11 13 12 10 7 10
15 16 34 41 53 56 55 51 48 45 45 42 41 33 34 40 40 39 34 31 28 29 17 14 14 14 14 14 8 7 10 13
29 22 43 52 51 55 54 49 47 45 42 41 32 44 43 35 36 35 30 26 27 28 21 15 12 13 12 14 12 7 6 14
38 27 57 65 54 56 51 48 45 47 43 35 33 38 35 34 36 34 25 24 28 27 19 19 13 14 13 18 17 10 8 8
30 22 75 75 55 58 49 46 52 46 31 36 38 29 33 36 33 29 29 29 35 27 18 23 10 14 13 19 18 13 6 6
27 39 73 69 60 54 51 55 48 39 39 43 35 32 34 32 26 31 31 30 29 23 21 21 12 15 13 18 16 16 12 20
17 61 70 59 60 51 50 50 43 40 45 40 36 31 39 24 26 27 25 27 30 31 28 24 16 19 15 21 15 13 16 29
29 56 64 63 55 52 57 48 51 41 36 31 36 31 31 26 21 24 24 25 24 27 27 22 16 25 19 23 15 13 20 28
44 57 58 62 56 54 57 51 48 44 37 37 38 35 25 20 19 18 17 19 22 24 23 18 9 19 22 30 25 12 21 28
55 53 62 58 59 59 60 60 53 41 42 39 42 39 36 32 23 20 22 26 22 24 23 18 13 19 22 26 29 31 33 26
45 45 56 57 58 56 58 65 51 37 35 40 43 30 45 35 25 20 18 23 27 26 24 19 20 28 27 29 37 33 28 28
41 62 58 55 56 52 58 52 42 38 30 31 26 33 30 33 31 32 24 26 27 28 28 28 36 33 29 28 38 32 26 22
63 56 46 50 58 41 44 51 47 38 23 28 30 37 38 35 25 30 28 32 21 28 32 36 40 34 34 34 33 29 23 18
55 56 61 66 52 40 48 52 43 38 27 26 22 39 43 35 33 34 32 37 30 29 18 26 28 34 37 34 29 26 20 18
30 51 58 55 45 38 44 45 34 19 37 27 26 28 42 42 38 36 38 44 39 33 20 33 28 20 29 33 24 22 22 19
Wind_Direction_850mb
195 230 229 217 202 184 168 166 168 172 170 169 166 164 165 166 171 176 172 164 161 172 177 182 188 194 217 242 244 239 237 242
67 201 209 207 183 167 165 163 169 165 167 161 155 155 160 159 161 156 163 161 163 165 165 175 196 209 200 214 239 249 250 238
68 206 189 143 147 148 156 149 150 148 148 153 155 156 156 159 160 158 153 155 166 168 169 171 169 198 228 250 249 243 230 239
356 215 187 142 146 154 155 146 149 148 147 152 154 155 158 158 155 154 157 167 165 169 162 179 205 231 239 237 210 239 264 233
325 292 205 153 148 151 152 146 143 145 148 152 156 155 154 160 162 161 170 169 169 155 172 188 232 206 177 177 163 191 131 139
334 293 219 155 152 154 142 140 144 149 153 155 155 161 161 165 158 169 168 171 171 160 176 215 170 147 146 155 143 180 215 159
332 308 216 155 153 147 143 146 153 154 156 158 162 167 160 159 170 171 171 184 178 164 169 164 135 135 136 161 161 204 177 168
295 287 203 171 154 155 148 156 157 160 159 159 160 150 154 169 175 175 183 177 160 152 157 155 129 126 123 131 124 100 176 179
306 279 189 171 159 154 155 161 164 147 137 147 167 175 161 174 176 170 182 162 156 153 167 140 121 118 124 144 139 119 109 163
277 238 181 166 158 157 161 164 143 138 139 156 159 152 157 166 174 177 175 170 163 162 160 135 147 133 133 151 147 139 173 172
281 202 176 163 156 158 160 145 142 140 146 153 141 142 159 156 176 173 184 180 172 166 142 157 165 153 141 150 148 133 136 143
255 167 167 158 148 158 149 138 141 142 152 140 143 146 159 166 176 185 180 179 182 174 163 169 186 165 152 155 141 124 119 142
208 176 153 142 154 155 150 147 144 146 157 148 153 160 166 175 182 180 190 191 186 179 177 186 189 169 155 147 130 110 144 147
182 166 154 148 157 154 150 150 147 160 150 150 154 164 156 149 153 150 146 168 169 166 161 171 144 171 151 153 147 125 131 138
184 170 151 156 158 157 154 155 154 156 155 162 167 176 165 144 131 136 142 141 148 152 154 170 184 158 155 154 136 125 106 100
182 166 153 163 161 153 153 149 149 153 159 173 178 173 164 148 149 136 135 145 156 160 165 172 165 159 156 148 146 142 126 130
174 151 159 162 155 149 149 147 148 155 159 174 164 155 154 153 154 148 138 146 152 162 165 158 152 150 153 153 161 150 138 144
117 130 145 149 136 145 156 147 154 158 169 143 175 165 153 163 150 143 140 149 154 149 159 159 156 162 164 159 157 155 164 167
109 121 118 124 126 121 127 147 158 164 173 141 163 172 158 160 142 151 153 151 149 154 149 163 161 163 164 165 157 167 182 162
111 122 129 132 130 127 133 151 166 156 167 169 165 181 161 164 150 149 152 149 149 157 146 144 136 133 160 163 162 180 182 157